When you browse on this site, cookies collect data to enhance your experience and personalize the content and advertising you see.
Visit our Privacy Policy to learn more. By continuing to use the site, you agree to this use of cookies and data.
  • In France
  • List of Countries
  • For 7 days
  • Water Temperature
  • Weather Map
  • Weather Widgets
  • user-avatar
    Login

    Hourly Weather Bansko

    Today, 16 September, Monday

    Time Temperature Precipitation Wind Pressure Humidity
    00:00 +18°C° 0 mm 1 mps 725 mmHg 62%
    01:00 +16°C° 0 mm 0 mps 725 mmHg 65%
    02:00 +16°C° 0 mm 1 mps 724 mmHg 70%
    03:00 +16°C° 0 mm 1 mps 724 mmHg 71%
    04:00 +15°C° 0 mm 0 mps 724 mmHg 72%
    05:00 +14°C° 0 mm 0 mps 723 mmHg 73%
    06:00 +16°C° 0 mm 0 mps 723 mmHg 67%
    07:00 +20°C° 0 mm 1 mps 724 mmHg 61%
    08:00 +21°C° 0 mm 1 mps 724 mmHg 54%
    09:00 +24°C° 0 mm 1 mps 724 mmHg 48%
    10:00 +26°C° 0 mm 1 mps 723 mmHg 41%
    11:00 +28°C° 0 mm 1 mps 723 mmHg 35%
    12:00 +29°C° 0 mm 2 mps 723 mmHg 31%
    13:00 +30°C° 0 mm 2 mps 722 mmHg 27%
    14:00 +31°C° 0 mm 2 mps 722 mmHg 24%
    15:00 +31°C° 0 mm 2 mps 721 mmHg 24%
    16:00 +31°C° 0 mm 2 mps 721 mmHg 24%
    17:00 +31°C° 0 mm 2 mps 720 mmHg 25%
    18:00 +28°C° 0 mm 2 mps 721 mmHg 30%
    19:00 +25°C° 0 mm 2 mps 721 mmHg 36%
    20:00 +21°C° 0 mm 2 mps 721 mmHg 41%
    21:00 +21°C° 0 mm 1 mps 721 mmHg 43%
    22:00 +20°C° 0 mm 1 mps 721 mmHg 45%
    23:00 +20°C° 0 mm 1 mps 721 mmHg 47%

    Tomorrow, 17 September, Tuesday

    Time Temperature Precipitation Wind Pressure Humidity
    00:00 +19°C° 0 mm 1 mps 721 mmHg 48%
    01:00 +19°C° 0 mm 1 mps 721 mmHg 49%
    02:00 +18°C° 0 mm 1 mps 721 mmHg 50%
    03:00 +18°C° 0 mm 1 mps 720 mmHg 50%
    04:00 +16°C° 0 mm 1 mps 720 mmHg 50%
    05:00 +16°C° 0 mm 1 mps 720 mmHg 50%
    06:00 +17°C° 0 mm 0 mps 720 mmHg 46%
    07:00 +19°C° 0 mm 0 mps 720 mmHg 42%
    08:00 +20°C° 0 mm 0 mps 721 mmHg 38%
    09:00 +25°C° 0 mm 1 mps 721 mmHg 33%
    10:00 +27°C° 0 mm 1 mps 721 mmHg 28%
    11:00 +30°C° 0 mm 1 mps 721 mmHg 23%
    12:00 +31°C° 0 mm 1 mps 721 mmHg 21%
    13:00 +32°C° 0 mm 1 mps 720 mmHg 19%
    14:00 +33°C° 0 mm 1 mps 720 mmHg 18%
    15:00 +32°C° 0 mm 1 mps 719 mmHg 18%
    16:00 +32°C° 0 mm 1 mps 719 mmHg 19%
    17:00 +31°C° 0 mm 1 mps 718 mmHg 20%
    18:00 +28°C° 0 mm 1 mps 718 mmHg 23%
    19:00 +26°C° 0 mm 1 mps 718 mmHg 26%
    20:00 +23°C° 0 mm 1 mps 719 mmHg 28%
    21:00 +22°C° 0 mm 1 mps 719 mmHg 30%
    22:00 +22°C° 0 mm 1 mps 719 mmHg 31%
    23:00 +21°C° 0 mm 1 mps 719 mmHg 32%

    Day after tomorrow, 18 September, Wednesday

    Time Temperature Precipitation Wind Pressure Humidity
    00:00 +21°C° 0 mm 1 mps 719 mmHg 35%
    01:00 +20°C° 0 mm 1 mps 719 mmHg 37%
    02:00 +20°C° 0 mm 1 mps 719 mmHg 39%
    03:00 +20°C° 0 mm 1 mps 718 mmHg 42%
    04:00 +20°C° 0 mm 1 mps 718 mmHg 44%
    05:00 +19°C° 0 mm 1 mps 718 mmHg 47%
    06:00 +21°C° 0 mm 1 mps 719 mmHg 45%
    07:00 +21°C° 0 mm 0 mps 719 mmHg 43%
    08:00 +22°C° 0 mm 0 mps 720 mmHg 41%
    09:00 +26°C° 0 mm 1 mps 720 mmHg 36%
    10:00 +28°C° 0 mm 1 mps 720 mmHg 32%
    11:00 +30°C° 0 mm 2 mps 721 mmHg 27%
    12:00 +31°C° 0 mm 3 mps 721 mmHg 27%
    13:00 +31°C° 0 mm 3 mps 721 mmHg 26%
    14:00 +32°C° 0 mm 4 mps 721 mmHg 26%
    15:00 +30°C° 0 mm 4 mps 721 mmHg 31%
    16:00 +29°C° 0 mm 5 mps 721 mmHg 37%
    17:00 +27°C° 0 mm 5 mps 721 mmHg 42%
    18:00 +25°C° 0 mm 4 mps 721 mmHg 49%
    19:00 +21°C° 0 mm 3 mps 721 mmHg 56%
    20:00 +19°C° 0 mm 2 mps 722 mmHg 64%
    21:00 +18°C° 0 mm 2 mps 722 mmHg 66%
    22:00 +17°C° 0 mm 2 mps 722 mmHg 68%
    23:00 +16°C° 0 mm 1 mps 723 mmHg 70%

    19 September, Thursday

    Time Temperature Precipitation Wind Pressure Humidity
    00:00 +16°C° 0 mm 1 mps 723 mmHg 71%
    01:00 +15°C° 0 mm 1 mps 723 mmHg 72%
    02:00 +15°C° 0 mm 1 mps 723 mmHg 73%
    03:00 +14°C° 0 mm 1 mps 723 mmHg 73%
    04:00 +14°C° 0 mm 1 mps 723 mmHg 73%
    05:00 +14°C° 0 mm 1 mps 723 mmHg 74%
    06:00 +15°C° 0 mm 1 mps 723 mmHg 69%
    07:00 +16°C° 0 mm 1 mps 723 mmHg 64%
    08:00 +16°C° 0 mm 0 mps 724 mmHg 59%
    09:00 +20°C° 0 mm 1 mps 724 mmHg 55%
    10:00 +22°C° 0 mm 1 mps 724 mmHg 51%
    11:00 +24°C° 0 mm 1 mps 724 mmHg 46%
    12:00 +25°C° 0.1 mm 1 mps 724 mmHg 45%
    13:00 +26°C° 0.1 mm 1 mps 723 mmHg 44%
    14:00 +27°C° 0.1 mm 1 mps 723 mmHg 43%
    15:00 +26°C° 0.2 mm 2 mps 723 mmHg 46%
    16:00 +25°C° 0.2 mm 2 mps 723 mmHg 50%
    17:00 +24°C° 0.2 mm 2 mps 723 mmHg 53%
    18:00 +21°C° 0.2 mm 2 mps 723 mmHg 61%
    19:00 +19°C° 0.2 mm 2 mps 723 mmHg 69%
    20:00 +17°C° 0.2 mm 2 mps 723 mmHg 77%
    21:00 +16°C° 0.2 mm 2 mps 723 mmHg 82%
    22:00 +15°C° 0.2 mm 2 mps 723 mmHg 86%
    23:00 +15°C° 0.2 mm 2 mps 724 mmHg 90%

    20 September, Friday

    Time Temperature Precipitation Wind Pressure Humidity
    00:00 +14°C° 0.1 mm 2 mps 724 mmHg 90%
    01:00 +14°C° 0.1 mm 2 mps 724 mmHg 91%
    02:00 +13°C° 0.1 mm 2 mps 724 mmHg 91%
    03:00 +13°C° 0.1 mm 2 mps 724 mmHg 89%
    04:00 +13°C° 0.1 mm 2 mps 724 mmHg 87%
    05:00 +13°C° 0.1 mm 1 mps 724 mmHg 85%
    06:00 +13°C° 0 mm 2 mps 724 mmHg 80%
    07:00 +14°C° 0 mm 2 mps 724 mmHg 75%
    08:00 +14°C° 0 mm 2 mps 724 mmHg 70%
    09:00 +16°C° 0 mm 3 mps 724 mmHg 58%
    10:00 +17°C° 0 mm 3 mps 724 mmHg 47%
    11:00 +19°C° 0 mm 4 mps 725 mmHg 35%
    12:00 +20°C° 0 mm 4 mps 725 mmHg 30%
    13:00 +21°C° 0 mm 4 mps 724 mmHg 24%
    14:00 +22°C° 0 mm 4 mps 724 mmHg 19%
    15:00 +22°C° 0 mm 4 mps 724 mmHg 20%
    16:00 +21°C° 0 mm 4 mps 724 mmHg 21%
    17:00 +20°C° 0 mm 4 mps 723 mmHg 22%
    18:00 +18°C° 0 mm 3 mps 724 mmHg 28%
    19:00 +14°C° 0 mm 3 mps 724 mmHg 34%
    20:00 +13°C° 0 mm 2 mps 725 mmHg 40%
    21:00 +12°C° 0 mm 2 mps 725 mmHg 42%
    22:00 +10°C° 0 mm 2 mps 725 mmHg 44%
    23:00 +11°C° 0 mm 1 mps 726 mmHg 47%

    21 September, Saturday

    Time Temperature Precipitation Wind Pressure Humidity
    00:00 +10°C° 0 mm 1 mps 726 mmHg 48%
    01:00 +10°C° 0 mm 1 mps 726 mmHg 49%
    02:00 +9°C° 0 mm 1 mps 726 mmHg 50%
    03:00 +9°C° 0 mm 1 mps 726 mmHg 52%
    04:00 +8°C° 0 mm 1 mps 726 mmHg 53%
    05:00 +8°C° 0 mm 1 mps 726 mmHg 55%
    06:00 +9°C° 0 mm 1 mps 727 mmHg 51%
    07:00 +11°C° 0 mm 1 mps 727 mmHg 47%
    08:00 +12°C° 0 mm 1 mps 727 mmHg 44%
    09:00 +14°C° 0 mm 1 mps 728 mmHg 39%
    10:00 +16°C° 0 mm 2 mps 728 mmHg 34%
    11:00 +18°C° 0 mm 2 mps 728 mmHg 30%
    12:00 +19°C° 0 mm 2 mps 728 mmHg 28%
    13:00 +20°C° 0 mm 2 mps 727 mmHg 26%
    14:00 +21°C° 0 mm 2 mps 727 mmHg 24%
    15:00 +21°C° 0 mm 2 mps 727 mmHg 24%
    16:00 +21°C° 0 mm 2 mps 726 mmHg 24%
    17:00 +20°C° 0 mm 2 mps 726 mmHg 24%
    18:00 +18°C° 0 mm 2 mps 726 mmHg 29%
    19:00 +15°C° 0 mm 2 mps 726 mmHg 34%
    20:00 +13°C° 0 mm 1 mps 726 mmHg 39%
    21:00 +12°C° 0 mm 1 mps 727 mmHg 40%
    22:00 +11°C° 0 mm 1 mps 727 mmHg 42%
    23:00 +11°C° 0 mm 1 mps 727 mmHg 44%
    Show more